Simultaneous Nadir Overpasses (SNOs) Predictions

Prediction of SNOs between NPP and TERRA Satellite Orbit:

Table of predicted SNOs for the next 14.0 days since TLE Epoch: 12/23/2013
Index Date (NPP) Time (NPP) Lat,Lon (NPP) SZA (NPP ) Date (TERRA) Time (TERRA) Lat,Lon (TERRA) SZA (TERRA ) Distance(km) Time Diff (sec)
1 12/25/2013 17:33:59 68.53, -84.68 91.79 12/25/2013 17:34:32 68.55, -84.73 91.81 3.42 33
2 12/25/2013 18:24:41 -68.46, 82.73 88.28 12/25/2013 18:24:02 -68.44, 82.77 88.30 2.15 39
3 12/28/2013 09:00:20 -69.00,-136.85 87.84 12/28/2013 09:01:31 -68.87,-136.11 87.99 33.14 71
4 12/28/2013 09:50:58 68.54, 31.08 91.69 12/28/2013 09:51:02 68.53, 31.12 91.68 1.81 4
5 12/28/2013 10:41:39 -68.41,-161.44 88.44 12/28/2013 10:40:32 -68.43,-161.38 88.43 2.81 67
6 12/31/2013 01:17:10 -68.59, -20.52 88.43 12/31/2013 01:18:04 -68.60, -20.57 88.42 2.19 54
7 12/31/2013 02:07:55 68.50, 146.90 91.49 12/31/2013 02:07:31 68.48, 146.93 91.47 2.74 24
8 12/31/2013 02:58:22 -67.62, -44.67 89.41 12/31/2013 02:57:13 -67.71, -46.34 89.30 71.34 69
9 01/02/2014 16:43:43 69.54, -73.39 92.34 01/02/2014 16:44:50 69.40, -71.30 92.17 83.23 67
10 01/02/2014 17:34:08 -68.55, 95.29 88.68 01/02/2014 17:34:33 -68.58, 95.29 88.66 2.85 25
11 01/02/2014 18:24:52 68.41, -97.22 91.18 01/02/2014 18:24:01 68.40, -97.28 91.17 2.95 51
12 01/05/2014 09:00:25 68.66, 43.61 91.16 01/05/2014 09:01:32 68.63, 43.60 91.13 3.29 67
13 01/05/2014 09:51:06 -68.52,-148.90
